{"data":{"norad_id":66207,"epoch":"2026-09-20T13:45:20.032128Z","epoch_age_seconds":90344,"freshness":"FRESH","line1":"1 66207U 25244B   26263.57314852  .00024054  00000+0  72077-3 0  9992","line2":"2 66207  53.1585  41.3447 0001219  94.8980 265.2162 15.34398931 51549","mean_motion":15.34398931,"eccentricity":0.0001219,"inclination_deg":53.1585,"raan_deg":41.3447,"arg_perigee_deg":94.898,"mean_anomaly_deg":265.2162,"bstar":0.00072077,"rev_number":5154,"period_min":93.847823464105,"perigee_km":461.87251868964,"apogee_km":463.54031631482,"semimajor_km":6840.8434175022,"source":"CELESTRAK","updated_at":"2026-09-21T09:00:35.839665Z"}}